Aeroporto :
LOGIN :

Iscrizione | Disclaimer

   EN    FR    IT 

 










Sommario :    VFR   VFR Marginale   IFR   IFR Intensivo   IFR Molto Intensivo
Visibilità : 
Base nubi : 
>= 8 km
>= 3000ft
5 / 8 km
1000 / 3000 ft
1500m / 5 km
500 / 1000 ft
800 / 1500m
200 / 500 ft
< 800m
< 200 ft
Simboli :   Temporali  Nebbia  Neve Forte  Precipitazioni Forti  Vento > 20 kt
SIGMETs :   Varie  Temporali  Ghiacco  Turbolenza  Onda orograficha  Ceneri Vulcaniche






- Altitudine del aeroporto : 49 ft
- Codice IATA : SEN


EGMC - Southend

ULTIMO METAR :
  • 131720Z 12008KT CAVOK 24/15 Q1024

METARs OBSOLETI :
  • 131650Z 11009KT CAVOK 24/15 Q1024
  • 131620Z 11009KT CAVOK 24/15 Q1025
  • 131550Z 11008KT CAVOK 24/15 Q1025
  • 131520Z 11010KT CAVOK 24/15 Q1025

TAF TAF EGMC
Valido dal 13 a 18 ore il 14 a 03 ore UTC


131656Z 1318/1403 11010KT 9999 FEW045
BECMG 1318/1321 20006KT



MetMap, La meteo Aeronautica in un colpo d'occhio ! - Copyright ORBIFLY Dicembre 2007 - Disclaimer

ORBIFLY MET'MAP TEAM :

Programmazione e sviluppo : Alexandra Zaïnal
Concezione : Baudouin d'Aumeries
Aiuto per la programmazione : Marc-Olivier Méhu
Supporto tecnico e logistico : Manuel Goepfert
Aiuto per la traduzione : Arnaldo La Scala

Contatto : metmap@orbifly.com




FONTI E CREDITI :

   NOAA